Pittsfield, MA

3:02 PM EST on November 13, 2019 (GMT -0500)
Pittsfield Municipal

Weather History for KPSF - July, 2019

Change the Weather History Date:

Friday, July 12, 2019

  Actual Average Record
Temperature  
Mean Temperature 74 °F 68 °F  
Max Temperature 81 °F 79 °F 98 °F (1936)
Min Temperature 67 °F 56 °F 42 °F (1945)
Degree Days  
Heating Degree Days 0 1  
Month to date heating degree days 0 12  
Since 1 June heating degree days 67 113  
Since 1 July heating degree days 0 12  
Cooling Degree Days 9 4  
Month to date cooling degree days 76 41  
Year to date cooling degree days 133 110  
Since 1 June cooling degree days 127 97  
Growing Degree Days 24 (Base 50)    
Moisture  
Dew Point 64 °F    
Average Humidity 72    
Maximum Humidity 90    
Minimum Humidity 54    
Precipitation  
Precipitation 0.00 in 0.13 in 1.85 in (1947)
Month to date precipitation 0.35 1.42  
Year to date precipitation 22.94 22.86  
Sea Level Pressure  
Sea Level Pressure 29.73 in    
Wind  
Wind Speed 8 mph (WNW)    
Max Wind Speed 23 mph    
Max Gust Speed 27 mph    
Visibility 10 miles    
Events      
T = Trace of Precipitation, MM = Missing Value Source: NWS Daily Summary

Daily Weather History Graph

Daily Weather History Graph

Search for Another Location

Airport or City:

Astronomy

Jul. 12, 2019 Rise Set
Actual Time 5:26 AM EDT 8:30 PM EDT
Civil Twilight 4:52 AM EDT 9:04 PM EDT
Nautical Twilight 4:09 AM EDT 9:47 PM EDT
Astronomical Twilight 3:18 AM EDT 10:38 PM EDT
Moon 4:44 PM EDT (7/12) 2:11 AM EDT (7/12)
Length of Visible Light 16h 11m
Length of Day
15h 03m
Waxing Gibbous, 82% of the Moon is Illuminated
Jul 12
Waxing Gibbous
Jul 16
Full
Jul 24
Last Quarter
Jul 31
New
Aug 7
First Quarter

Hourly Weather History & Observations

Time (EDT) Temp. Dew Point Humidity Pressure Visibility Wind Dir Wind Speed Gust Speed Precip Events Conditions
12:49 AM 69.8 °F 66.2 °F 88% 29.79 in 10.0 mi Calm Calm - N/A   Mostly Cloudy
12:50 AM 70.0 °F 66.0 °F 87% 29.71 in 10.0 mi Variable 3.5 mph - N/A   Mostly Cloudy
1:25 AM 70.0 °F 66.9 °F 90% 29.78 in 10.0 mi Calm Calm - N/A   Overcast
1:54 AM 70.0 °F 66.9 °F 90% 29.70 in 10.0 mi Calm Calm - N/A   Overcast
2:17 AM 70.0 °F 66.9 °F 90% 29.77 in 10.0 mi Calm Calm - N/A   Overcast
2:31 AM 70.0 °F 66.9 °F 90% 29.77 in 10.0 mi Calm Calm - N/A   Overcast
2:54 AM 69.1 °F 66.0 °F 90% 29.68 in 10.0 mi Calm Calm - N/A   Overcast
3:16 AM 69.1 °F 66.9 °F 93% 29.75 in 10.0 mi Calm Calm - N/A   Overcast
3:36 AM 69.1 °F 66.0 °F 90% 29.73 in 10.0 mi NNE 3.5 mph - N/A   Overcast
3:54 AM 69.1 °F 66.0 °F 90% 29.63 in 10.0 mi South 3.5 mph - N/A   Overcast
4:01 AM 69.1 °F 66.0 °F 90% 29.71 in 10.0 mi SSW 3.5 mph - N/A   Overcast
4:34 AM 68.0 °F 66.0 °F 93% 29.71 in 9.0 mi Calm Calm - N/A   Mostly Cloudy
4:43 AM 69.1 °F 66.0 °F 90% 29.72 in 9.0 mi Variable 3.5 mph - N/A   Overcast
4:54 AM 69.1 °F 66.0 °F 90% 29.64 in 7.0 mi Calm Calm - N/A   Overcast
5:41 AM 70.0 °F 66.0 °F 87% 29.73 in 10.0 mi Calm Calm - N/A   Overcast
5:54 AM 69.1 °F 66.0 °F 90% 29.65 in 8.0 mi Calm Calm - N/A   Overcast
6:15 AM 69.1 °F 66.9 °F 93% 29.73 in 7.0 mi Calm Calm - N/A   Overcast
6:40 AM 70.0 °F 66.9 °F 90% 29.73 in 9.0 mi Calm Calm - N/A   Overcast
6:54 AM 70.0 °F 66.9 °F 90% 29.65 in 10.0 mi Calm Calm - N/A   Overcast
7:54 AM 72.0 °F 66.9 °F 84% 29.66 in 10.0 mi West 4.6 mph - N/A   Overcast
8:43 AM 73.9 °F 66.9 °F 79% 29.75 in 10.0 mi WNW 11.5 mph - N/A   Mostly Cloudy
8:54 AM 75.0 °F 66.9 °F 76% 29.66 in 10.0 mi WNW 10.4 mph - N/A   Overcast
9:19 AM 77.0 °F 66.9 °F 71% 29.74 in 10.0 mi NNW 9.2 mph - N/A   Scattered Clouds
9:42 AM 75.9 °F 66.0 °F 71% 29.74 in 10.0 mi WNW 9.2 mph - N/A   Mostly Cloudy
9:54 AM 75.0 °F 66.0 °F 73% 29.67 in 10.0 mi WNW 10.4 mph - N/A   Mostly Cloudy
10:54 AM 73.0 °F 64.9 °F 76% 29.70 in 10.0 mi West 9.2 mph - N/A   Overcast
11:19 AM 75.0 °F 64.9 °F 71% 29.77 in 10.0 mi West 10.4 mph - N/A   Overcast
11:54 AM 75.9 °F 63.0 °F 64% 29.70 in 10.0 mi WNW 13.8 mph - N/A   Mostly Cloudy
12:54 PM 78.1 °F 63.0 °F 60% 29.69 in 10.0 mi WNW 11.5 mph - N/A   Mostly Cloudy
1:54 PM 79.0 °F 61.0 °F 54% 29.69 in 10.0 mi West 12.7 mph - N/A   Scattered Clouds
2:54 PM 79.0 °F 60.1 °F 52% 29.68 in 10.0 mi West 13.8 mph - N/A   Scattered Clouds
3:54 PM 78.1 °F 60.1 °F 54% 29.68 in 10.0 mi WNW 13.8 mph 21.9 mph N/A   Partly Cloudy
4:54 PM 73.9 °F 60.1 °F 62% 29.69 in 10.0 mi WNW 11.5 mph 20.7 mph N/A   Mostly Cloudy
5:54 PM 73.0 °F 61.0 °F 66% 29.70 in 10.0 mi WNW 10.4 mph - N/A   Mostly Cloudy
6:50 PM 73.4 °F 62.6 °F 69% 29.78 in 10.0 mi WNW 5.8 mph - N/A   Mostly Cloudy
6:54 PM 72.0 °F 62.1 °F 71% 29.71 in 10.0 mi WNW 6.9 mph - N/A   Mostly Cloudy
7:54 PM 71.1 °F 62.1 °F 73% 29.73 in 10.0 mi WNW 9.2 mph - N/A   Mostly Cloudy
8:04 PM 71.1 °F 62.1 °F 73% 29.81 in 10.0 mi WNW 9.2 mph - N/A   Mostly Cloudy
8:11 PM 71.1 °F 62.1 °F 73% 29.81 in 10.0 mi West 8.1 mph - N/A   Mostly Cloudy
8:21 PM 71.1 °F 62.1 °F 73% 29.81 in 10.0 mi WSW 8.1 mph - N/A   Scattered Clouds
8:32 PM 70.0 °F 62.1 °F 76% 29.81 in 10.0 mi West 8.1 mph - N/A   Mostly Cloudy
8:54 PM 70.0 °F 62.1 °F 76% 29.73 in 10.0 mi West 5.8 mph - N/A   Scattered Clouds
9:04 PM 70.0 °F 62.1 °F 76% 29.82 in 10.0 mi WSW 3.5 mph - N/A   Mostly Cloudy
9:54 PM 69.1 °F 62.1 °F 78% 29.78 in 10.0 mi Variable 4.6 mph - N/A   Overcast
10:25 PM 69.1 °F 62.1 °F 78% 29.86 in 10.0 mi WNW 10.4 mph - N/A   Mostly Cloudy
10:54 PM 68.0 °F 62.1 °F 81% 29.80 in 10.0 mi WNW 9.2 mph - N/A   Mostly Cloudy
11:54 PM 66.9 °F 62.1 °F 84% 29.80 in 10.0 mi West 11.5 mph - N/A   Mostly Cloudy